N8XSF-1 Weather Reports


Display with metric or nautical units.
time (UTC)temp
F
wind
direction
speed
MPH
gust
MPH
rain 1hr
in
rain 24hr
in
rain mn
in
humidity
%
barometer
mb
20260504110334 50 182 1.0 9.0 0.00 0.00 0.00 75 1003.8
20260504100319 50 184 2.0 8.0 0.00 0.00 0.00 75 1003.7
20260504081842 50 181 4.0 11.0 0.00 0.00 0.00 72 1004.5
20260504081326 50 184 5.0 10.0 0.00 0.00 0.00 71 1004.5
20260504080849 51 176 5.0 12.0 0.00 0.00 0.00 71 1004.5
20260504080336 51 191 6.0 11.0 0.00 0.00 0.00 71 1004.6
20260504070331 51 191 5.0 10.0 0.00 0.00 0.00 69 1005.5
20260504050333 52 180 4.0 13.0 0.00 0.00 0.00 66 1006.8
20260504045821 52 185 7.0 13.0 0.00 0.00 0.00 66 1006.8
20260504045333 52 171 4.0 10.0 0.00 0.00 0.00 66 1006.8
20260504044821 52 161 5.0 12.0 0.00 0.00 0.00 67 1007.1
20260504044326 52 163 5.0 14.0 0.00 0.00 0.00 66 1007.1
20260504043817 52 191 5.0 14.0 0.00 0.00 0.00 67 1007.1
20260504043328 52 192 3.0 9.0 0.00 0.00 0.00 67 1007.1
20260504042820 52 163 3.0 12.0 0.00 0.00 0.00 67 1007.1
20260504042341 52 163 5.0 12.0 0.00 0.00 0.00 66 1007.1
20260504041837 52 185 4.0 11.0 0.00 0.00 0.00 66 1007.1
20260504041324 52 184 6.0 10.0 0.00 0.00 0.00 66 1007.1
20260504040829 52 188 5.0 11.0 0.00 0.00 0.00 65 1007.1
20260504040318 52 186 6.0 13.0 0.00 0.00 0.00 66 1007.3
20260504035828 52 159 6.0 13.0 0.00 0.00 0.00 66 1007.3
20260504035316 52 190 8.0 12.0 0.00 0.00 0.00 66 1007.3
20260504034825 52 172 6.0 12.0 0.00 0.00 0.00 66 1007.5
20260504034318 52 200 6.0 11.0 0.00 0.00 0.00 66 1007.5
20260504033903 52 175 6.0 13.0 0.00 0.00 0.00 66 1007.5
20260504033331 52 174 4.0 13.0 0.00 0.00 0.00 66 1007.6
20260504032837 52 169 5.0 9.0 0.00 0.00 0.00 66 1007.6
20260504032322 52 160 4.0 8.0 0.00 0.00 0.00 67 1007.6
20260504031831 52 160 4.0 10.0 0.00 0.00 0.00 67 1007.7
20260504031323 52 165 5.0 10.0 0.00 0.00 0.00 67 1007.7
20260504030832 52 155 5.0 11.0 0.00 0.00 0.00 67 1007.7
20260504030337 52 180 5.0 11.0 0.00 0.00 0.00 67 1007.9
20260504025829 52 183 7.0 11.0 0.00 0.00 0.00 67 1007.9
20260504025336 52 169 4.0 10.0 0.00 0.00 0.00 68 1007.9
20260504024859 51 165 3.0 8.0 0.00 0.00 0.00 69 1008.1
20260504024325 51 159 3.0 7.0 0.00 0.00 0.00 71 1008.1
20260504023836 51 160 2.0 6.0 0.00 0.00 0.00 71 1008.1
20260504023329 51 160 3.0 6.0 0.00 0.00 0.00 71 1008.2
20260504022829 51 160 2.0 6.0 0.00 0.00 0.00 71 1008.2
20260504022326 51 161 3.0 6.0 0.00 0.00 0.00 71 1008.2
20260504021838 51 161 3.0 6.0 0.00 0.00 0.00 71 1008.2
20260504021327 51 161 2.0 6.0 0.00 0.00 0.00 71 1008.2
20260504020820 51 161 2.0 6.0 0.00 0.00 0.00 71 1008.2
20260504020350 51 161 3.0 6.0 0.00 0.00 0.00 71 1008.2
20260504015822 51 164 3.0 6.0 0.00 0.00 0.00 71 1008.2
20260504015336 51 164 3.0 6.0 0.00 0.00 0.00 71 1008.2
20260504014830 52 181 3.0 6.0 0.00 0.00 0.00 71 1008.2
20260504014331 52 169 2.0 6.0 0.00 0.00 0.00 71 1008.2
20260504013823 52 178 2.0 7.0 0.00 0.00 0.00 71 1008.2
20260504013330 52 157 4.0 7.0 0.00 0.00 0.00 71 1008.3
20260504012816 52 164 3.0 7.0 0.00 0.00 0.00 71 1008.3
20260504012321 52 168 2.0 6.0 0.00 0.00 0.00 71 1008.3
20260504011832 52 163 2.0 7.0 0.00 0.00 0.00 71 1008.3
20260504011319 52 165 3.0 7.0 0.00 0.00 0.00 70 1008.3
20260504010832 52 163 4.0 6.0 0.00 0.00 0.00 70 1008.3
20260504010345 52 167 1.0 7.0 0.00 0.00 0.00 70 1008.3
20260504005846 52 164 2.0 7.0 0.00 0.00 0.00 70 1008.3
20260504005337 52 175 2.0 8.0 0.00 0.00 0.00 70 1008.3
20260504004856 52 193 2.0 8.0 0.00 0.00 0.00 70 1008.4
20260504004333 52 172 2.0 6.0 0.00 0.00 0.00 69 1008.4
20260504003832 53 177 2.0 7.0 0.00 0.00 0.00 69 1008.4
20260504003329 53 188 2.0 9.0 0.00 0.00 0.00 68 1008.6
20260504002838 53 201 4.0 10.0 0.00 0.00 0.00 68 1008.6
20260504002326 53 192 4.0 10.0 0.00 0.00 0.00 67 1008.6
20260504001825 53 192 5.0 9.0 0.00 0.00 0.00 67 1008.7
20260504001347 53 217 2.0 11.0 0.00 0.00 0.00 67 1008.7
20260504000833 53 194 5.0 11.0 0.00 0.00 0.00 66 1008.7
20260504000322 53 211 6.0 13.0 0.00 0.00 0.00 65 1008.8
20260503235846 53 213 6.0 13.0 0.00 0.00 0.00 65 1008.8
20260503235323 54 213 5.0 14.0 0.00 0.00 0.00 65 1008.8
20260503234838 54 210 7.0 14.0 0.00 0.00 0.00 64 1009.0
20260503234326 54 215 6.0 14.0 0.00 0.00 0.00 64 1009.0
20260503233813 54 213 9.0 21.0 0.00 0.00 0.00 64 1009.0
20260503233340 54 227 11.0 21.0 0.00 0.00 0.00 63 1009.0
20260503232846 54 199 8.0 22.0 0.00 0.00 0.00 63 1009.0
20260503232333 55 195 12.0 22.0 0.00 0.00 0.00 62 1009.0
20260503231821 55 216 7.0 15.0 0.00 0.00 0.00 63 1009.0
20260503231400 55 219 7.0 18.0 0.00 0.00 0.00 63 1009.0
20260503230825 55 203 11.0 18.0 0.00 0.00 0.00 62 1009.0
20260503230314 56 210 9.0 23.0 0.00 0.00 0.00 60 1008.9
20260503225828 57 227 14.0 23.0 0.00 0.00 0.00 58 1008.9
20260503225318 58 225 13.0 24.0 0.00 0.00 0.00 57 1008.9
20260503224826 58 205 9.0 16.0 0.00 0.00 0.00 58 1008.7
20260503224332 59 242 7.0 26.0 0.00 0.00 0.00 57 1008.7
20260503223828 59 214 16.0 26.0 0.00 0.00 0.00 55 1008.7
20260503223324 60 238 16.0 28.0 0.00 0.00 0.00 53 1008.6
20260503222814 60 212 13.0 33.0 0.00 0.00 0.00 53 1008.6
20260503222323 61 226 17.0 33.0 0.00 0.00 0.00 51 1008.6
20260503221820 61 253 12.0 26.0 0.00 0.00 0.00 50 1008.3
20260503221352 62 214 15.0 27.0 0.00 0.00 0.00 44 1008.3
20260503220846 63 217 14.0 23.0 0.00 0.00 0.00 43 1008.3
20260503220318 63 203 14.0 24.0 0.00 0.00 0.00 43 1008.3
20260503215811 63 211 10.0 24.0 0.00 0.00 0.00 43 1008.3
20260503215321 62 219 12.0 25.0 0.00 0.00 0.00 43 1008.3
20260503214840 62 207 13.0 25.0 0.00 0.00 0.00 43 1008.5
20260503214335 61 192 11.0 24.0 0.00 0.00 0.00 43 1008.5
20260503213847 62 240 12.0 23.0 0.00 0.00 0.00 44 1008.5
20260503213331 62 209 9.0 19.0 0.00 0.00 0.00 43 1008.5
20260503212820 62 203 13.0 24.0 0.00 0.00 0.00 43 1008.5
20260503212331 62 221 10.0 25.0 0.00 0.00 0.00 42 1008.5
20260503211827 63 218 15.0 25.0 0.00 0.00 0.00 41 1008.5
20260503211317 63 192 13.0 28.0 0.00 0.00 0.00 41 1008.5
20260503210858 63 200 17.0 28.0 0.00 0.00 0.00 42 1008.5
20260503210323 62 206 16.0 28.0 0.00 0.00 0.00 41 1008.7
20260503205838 62 242 16.0 28.0 0.00 0.00 0.00 41 1008.7
20260503205323 63 202 14.0 30.0 0.00 0.00 0.00 40 1008.7
20260503204814 62 219 14.0 31.0 0.00 0.00 0.00 40 1008.9
20260503204329 63 236 17.0 31.0 0.00 0.00 0.00 39 1008.9
20260503203819 63 197 18.0 32.0 0.00 0.00 0.00 39 1008.9
20260503203322 63 202 16.0 32.0 0.00 0.00 0.00 39 1009.0
20260503202815 63 217 16.0 27.0 0.00 0.00 0.00 38 1009.0
20260503202334 63 201 14.0 27.0 0.00 0.00 0.00 38 1009.0
20260503201838 63 207 14.0 33.0 0.00 0.00 0.00 39 1009.2
20260503201330 63 224 9.0 28.0 0.00 0.00 0.00 40 1009.2
20260503200822 63 207 15.0 28.0 0.00 0.00 0.00 38 1009.2
20260503200328 63 223 17.0 27.0 0.00 0.00 0.00 38 1009.2
20260503195813 63 225 16.0 29.0 0.00 0.00 0.00 39 1009.2
20260503195320 63 199 12.0 29.0 0.00 0.00 0.00 40 1009.2
20260503194828 63 201 11.0 27.0 0.00 0.00 0.00 39 1009.4
20260503194321 63 192 11.0 23.0 0.00 0.00 0.00 39 1009.4
20260503193841 63 226 14.0 26.0 0.00 0.00 0.00 38 1009.4
20260503193329 63 204 16.0 26.0 0.00 0.00 0.00 39 1009.6
20260503192838 63 244 13.0 26.0 0.00 0.00 0.00 38 1009.6
20260503192327 63 198 13.0 27.0 0.00 0.00 0.00 38 1009.6
20260503191819 62 196 15.0 27.0 0.00 0.00 0.00 39 1009.8
20260503191341 62 202 14.0 25.0 0.00 0.00 0.00 39 1009.8
20260503190843 63 215 16.0 26.0 0.00 0.00 0.00 38 1009.8
20260503190326 63 264 15.0 28.0 0.00 0.00 0.00 39 1010.0
20260503185834 63 202 16.0 28.0 0.00 0.00 0.00 39 1010.0
20260503185323 63 213 12.0 24.0 0.00 0.00 0.00 39 1010.0
20260503184824 63 229 15.0 27.0 0.00 0.00 0.00 39 1010.3
20260503184313 63 228 8.0 27.0 0.00 0.00 0.00 39 1010.3
20260503183826 63 189 14.0 33.0 0.00 0.00 0.00 39 1010.3
20260503183352 62 211 8.0 33.0 0.00 0.00 0.00 40 1010.4
20260503182822 62 215 14.0 26.0 0.00 0.00 0.00 38 1010.4
20260503182340 62 197 17.0 26.0 0.00 0.00 0.00 37 1010.4
20260503181828 63 190 10.0 24.0 0.00 0.00 0.00 40 1010.6
20260503181321 63 213 11.0 24.0 0.00 0.00 0.00 38 1010.6
20260503180813 62 219 7.0 23.0 0.00 0.00 0.00 41 1010.6
20260503180325 62 252 10.0 26.0 0.00 0.00 0.00 38 1010.8
20260503175816 62 206 14.0 28.0 0.00 0.00 0.00 40 1010.8
20260503175334 62 199 15.0 26.0 0.00 0.00 0.00 39 1010.8
20260503174838 62 240 15.0 27.0 0.00 0.00 0.00 39 1011.0
20260503174322 61 207 13.0 23.0 0.00 0.00 0.00 41 1011.0
20260503173851 61 200 12.0 28.0 0.00 0.00 0.00 40 1011.0
20260503173323 61 184 17.0 29.0 0.00 0.00 0.00 38 1011.2
20260503172816 61 199 11.0 22.0 0.00 0.00 0.00 39 1011.2
20260503172325 61 227 15.0 22.0 0.00 0.00 0.00 42 1011.2
20260503171835 60 200 11.0 19.0 0.00 0.00 0.00 45 1011.4
20260503171325 60 207 8.0 23.0 0.00 0.00 0.00 44 1011.4
20260503170843 60 211 11.0 23.0 0.00 0.00 0.00 43 1011.4
20260503170330 61 219 9.0 22.0 0.00 0.00 0.00 43 1011.5
20260503150815 56 234 8.0 18.0 0.00 0.00 0.00 51 1012.5
20260503150332 56 242 10.0 16.0 0.00 0.00 0.00 51 1012.6
20260503140315 51 234 8.0 16.0 0.00 0.00 0.00 59 1013.0
20260503131346 47 223 5.0 19.0 0.00 0.00 0.00 62 1013.2
20260503130833 47 254 10.0 16.0 0.00 0.00 0.00 61 1013.2
20260503130319 47 207 8.0 15.0 0.00 0.00 0.00 62 1013.2